Time,TemperatureF,DewpointF,PressureIn,WindDirection,WindDirectionDegrees,WindSpeedMPH,WindSpeedGustMPH,Humidity,HourlyPrecipIn,Conditions,Clouds,dailyrainin,SoftwareType,DateUTC
2013-09-30 00:00:00,50.6,49.5,30.11,West,270,0.0,0.0,96,0.00,,---,0.00,VWS V14.01,2013-09-30 04:00:00,
2013-09-30 00:01:00,50.6,49.5,30.11,West,270,0.0,0.0,96,0.00,,---,0.00,VWS V14.01,2013-09-30 04:01:00,
2013-09-30 00:06:00,50.7,49.6,30.11,West,270,0.0,0.0,96,0.00,,---,0.00,VWS V14.01,2013-09-30 04:06:00,
2013-09-30 00:11:00,50.6,49.5,30.11,West,270,0.0,0.0,96,0.00,,---,0.00,VWS V14.01,2013-09-30 04:11:00,
2013-09-30 00:16:00,50.5,49.4,30.11,West,270,0.0,0.0,96,0.00,,---,0.00,VWS V14.01,2013-09-30 04:16:00,
2013-09-30 00:21:00,50.4,49.3,30.11,West,270,0.0,0.0,96,0.00,,---,0.00,VWS V14.01,2013-09-30 04:21:00,
2013-09-30 00:26:00,50.4,49.3,30.11,West,270,0.0,0.0,96,0.00,,---,0.00,VWS V14.01,2013-09-30 04:26:00,
2013-09-30 00:30:00,50.4,49.3,30.10,West,270,0.0,0.0,96,0.00,,---,0.00,VWS V14.01,2013-09-30 04:30:00,
2013-09-30 00:31:00,50.4,49.3,30.11,West,270,0.0,0.0,96,0.00,,---,0.00,VWS V14.01,2013-09-30 04:31:00,
2013-09-30 00:36:00,50.2,49.1,30.10,West,270,0.0,0.0,96,0.00,,---,0.00,VWS V14.01,2013-09-30 04:36:00,
2013-09-30 00:41:00,50.1,49.0,30.10,West,270,0.0,0.0,96,0.00,,---,0.00,VWS V14.01,2013-09-30 04:41:00,
2013-09-30 00:46:00,50.1,49.3,30.10,West,270,0.0,0.0,97,0.00,,---,0.00,VWS V14.01,2013-09-30 04:46:00,
2013-09-30 00:51:00,50.0,48.9,30.10,West,270,0.0,0.0,96,0.00,,---,0.00,VWS V14.01,2013-09-30 04:51:00,
2013-09-30 00:56:00,49.9,48.8,30.10,West,270,0.0,0.0,96,0.00,,---,0.00,VWS V14.01,2013-09-30 04:56:00,
2013-09-30 01:00:00,49.7,48.6,30.10,West,270,0.0,0.0,96,0.00,,---,0.00,VWS V14.01,2013-09-30 05:00:00,
2013-09-30 01:01:00,49.7,48.6,30.10,West,270,0.0,0.0,96,0.00,,---,0.00,VWS V14.01,2013-09-30 05:01:00,
2013-09-30 01:06:00,49.6,48.5,30.10,West,270,0.0,0.0,96,0.00,,---,0.00,VWS V14.01,2013-09-30 05:06:00,
2013-09-30 01:11:00,49.4,48.3,30.10,West,270,0.0,0.0,96,0.00,,---,0.00,VWS V14.01,2013-09-30 05:11:00,
2013-09-30 01:16:00,49.4,48.6,30.10,West,270,0.0,0.0,97,0.00,,---,0.00,VWS V14.01,2013-09-30 05:16:00,
2013-09-30 01:21:00,49.3,48.5,30.10,West,270,0.0,0.0,97,0.00,,---,0.00,VWS V14.01,2013-09-30 05:21:00,
2013-09-30 01:26:00,49.2,48.4,30.10,West,269,0.0,0.0,97,0.00,,---,0.00,VWS V14.01,2013-09-30 05:26:00,
2013-09-30 01:30:00,49.1,48.3,30.10,West,270,0.0,0.0,97,0.00,,---,0.00,VWS V14.01,2013-09-30 05:30:00,
2013-09-30 01:31:00,49.1,48.3,30.10,West,270,0.0,0.0,97,0.00,,---,0.00,VWS V14.01,2013-09-30 05:31:00,
2013-09-30 01:36:00,49.0,48.2,30.10,West,270,0.0,0.0,97,0.00,,---,0.00,VWS V14.01,2013-09-30 05:36:00,
2013-09-30 01:41:00,49.0,48.2,30.10,West,270,0.0,0.0,97,0.00,,---,0.00,VWS V14.01,2013-09-30 05:41:00,
2013-09-30 01:46:00,48.9,48.1,30.10,West,270,0.0,0.0,97,0.00,,---,0.00,VWS V14.01,2013-09-30 05:46:00,
2013-09-30 01:51:00,48.9,48.1,30.10,West,270,0.0,0.0,97,0.00,,---,0.00,VWS V14.01,2013-09-30 05:51:00,
2013-09-30 01:56:00,48.8,48.0,30.10,West,270,0.0,0.0,97,0.00,,---,0.00,VWS V14.01,2013-09-30 05:56:00,
2013-09-30 02:00:00,48.6,47.8,30.10,West,269,0.0,0.0,97,0.00,,---,0.00,VWS V14.01,2013-09-30 06:00:00,
2013-09-30 02:01:00,48.6,47.8,30.10,West,270,0.0,0.0,97,0.00,,---,0.00,VWS V14.01,2013-09-30 06:01:00,
2013-09-30 02:06:00,48.5,47.7,30.10,West,270,0.0,0.0,97,0.00,,---,0.00,VWS V14.01,2013-09-30 06:06:00,
2013-09-30 02:11:00,48.5,47.7,30.10,West,270,0.0,0.0,97,0.00,,---,0.00,VWS V14.01,2013-09-30 06:11:00,
2013-09-30 02:16:00,48.3,47.5,30.10,West,269,0.0,0.0,97,0.00,,---,0.00,VWS V14.01,2013-09-30 06:16:00,
2013-09-30 02:21:00,48.2,47.4,30.10,West,270,0.0,0.0,97,0.00,,---,0.00,VWS V14.01,2013-09-30 06:21:00,
2013-09-30 02:26:00,48.2,47.4,30.10,West,270,0.0,0.0,97,0.00,,---,0.00,VWS V14.01,2013-09-30 06:26:00,
2013-09-30 02:30:00,48.1,47.3,30.10,West,270,0.0,0.0,97,0.00,,---,0.00,VWS V14.01,2013-09-30 06:30:00,
2013-09-30 02:31:00,48.1,47.3,30.10,West,270,0.0,0.0,97,0.00,,---,0.00,VWS V14.01,2013-09-30 06:31:00,
2013-09-30 02:36:00,48.1,47.3,30.10,West,270,0.0,0.0,97,0.00,,---,0.00,VWS V14.01,2013-09-30 06:36:00,
2013-09-30 02:41:00,48.2,47.4,30.10,West,270,0.0,0.0,97,0.00,,---,0.00,VWS V14.01,2013-09-30 06:41:00,
2013-09-30 02:46:00,48.1,47.3,30.10,West,270,0.0,0.0,97,0.00,,---,0.00,VWS V14.01,2013-09-30 06:46:00,
2013-09-30 02:51:00,48.0,47.2,30.10,West,270,0.0,0.0,97,0.00,,---,0.00,VWS V14.01,2013-09-30 06:51:00,
2013-09-30 02:56:00,48.0,47.2,30.09,West,270,0.0,0.0,97,0.00,,---,0.00,VWS V14.01,2013-09-30 06:56:00,
2013-09-30 03:00:00,48.0,47.2,30.09,West,270,0.0,0.0,97,0.00,,---,0.00,VWS V14.01,2013-09-30 07:00:00,
2013-09-30 03:01:00,48.0,47.2,30.09,West,270,0.0,0.0,97,0.00,,---,0.00,VWS V14.01,2013-09-30 07:01:00,
2013-09-30 03:06:00,47.9,47.1,30.09,West,270,0.0,0.0,97,0.00,,---,0.00,VWS V14.01,2013-09-30 07:06:00,
2013-09-30 03:11:00,47.8,47.0,30.10,West,270,0.0,0.0,97,0.00,,---,0.00,VWS V14.01,2013-09-30 07:11:00,
2013-09-30 03:16:00,47.6,46.8,30.10,West,270,0.0,0.0,97,0.00,,---,0.00,VWS V14.01,2013-09-30 07:16:00,
2013-09-30 03:21:00,47.7,46.9,30.09,West,270,0.0,0.0,97,0.00,,---,0.00,VWS V14.01,2013-09-30 07:21:00,
2013-09-30 03:26:00,47.7,46.9,30.09,West,269,0.0,0.0,97,0.00,,---,0.00,VWS V14.01,2013-09-30 07:26:00,
2013-09-30 03:30:00,47.6,46.8,30.09,West,270,0.0,0.0,97,0.00,,---,0.00,VWS V14.01,2013-09-30 07:30:00,
2013-09-30 03:31:00,47.6,46.8,30.09,West,270,0.0,0.0,97,0.00,,---,0.00,VWS V14.01,2013-09-30 07:31:00,
2013-09-30 03:36:00,47.6,46.8,30.09,West,270,0.0,0.0,97,0.00,,---,0.00,VWS V14.01,2013-09-30 07:36:00,
2013-09-30 03:41:00,47.5,46.7,30.08,West,270,0.0,0.0,97,0.00,,---,0.00,VWS V14.01,2013-09-30 07:41:00,
2013-09-30 03:46:00,47.3,46.5,30.08,West,270,0.0,0.0,97,0.00,,---,0.00,VWS V14.01,2013-09-30 07:46:00,
2013-09-30 03:51:00,47.1,46.3,30.08,West,270,0.0,0.0,97,0.00,,---,0.00,VWS V14.01,2013-09-30 07:51:00,
2013-09-30 03:56:00,47.1,46.3,30.08,West,270,0.0,0.0,97,0.00,,---,0.00,VWS V14.01,2013-09-30 07:56:00,
2013-09-30 04:00:00,46.9,46.1,30.08,West,270,0.0,0.0,97,0.00,,---,0.00,VWS V14.01,2013-09-30 08:00:00,
2013-09-30 04:01:00,46.9,46.1,30.08,West,270,0.0,0.0,97,0.00,,---,0.00,VWS V14.01,2013-09-30 08:01:00,
2013-09-30 04:06:00,46.8,46.0,30.08,West,270,0.0,0.0,97,0.00,,---,0.00,VWS V14.01,2013-09-30 08:06:00,
2013-09-30 04:11:00,46.8,46.0,30.08,West,270,0.0,0.0,97,0.00,,---,0.00,VWS V14.01,2013-09-30 08:11:00,
2013-09-30 04:16:00,46.7,45.9,30.08,West,270,0.0,0.0,97,0.00,,---,0.00,VWS V14.01,2013-09-30 08:16:00,
2013-09-30 04:21:00,46.8,46.0,30.08,West,269,0.0,0.0,97,0.00,,---,0.00,VWS V14.01,2013-09-30 08:21:00,
2013-09-30 04:26:00,46.7,45.9,30.08,West,270,0.0,0.0,97,0.00,,---,0.00,VWS V14.01,2013-09-30 08:26:00,
2013-09-30 04:30:00,46.7,45.9,30.08,West,269,0.0,0.0,97,0.00,,---,0.00,VWS V14.01,2013-09-30 08:30:00,
2013-09-30 04:31:00,46.7,45.9,30.08,West,270,0.0,0.0,97,0.00,,---,0.00,VWS V14.01,2013-09-30 08:31:00,
2013-09-30 04:36:00,46.7,45.9,30.08,West,270,0.0,0.0,97,0.00,,---,0.00,VWS V14.01,2013-09-30 08:36:00,
2013-09-30 04:41:00,46.6,45.8,30.08,West,270,0.0,0.0,97,0.00,,---,0.00,VWS V14.01,2013-09-30 08:41:00,
2013-09-30 04:46:00,46.5,45.7,30.08,West,270,0.0,0.0,97,0.00,,---,0.00,VWS V14.01,2013-09-30 08:46:00,
2013-09-30 04:51:00,46.4,45.6,30.08,West,270,0.0,0.0,97,0.00,,---,0.00,VWS V14.01,2013-09-30 08:51:00,
2013-09-30 04:56:00,46.3,45.5,30.09,West,270,0.0,0.0,97,0.00,,---,0.00,VWS V14.01,2013-09-30 08:56:00,
2013-09-30 05:00:00,46.1,45.3,30.09,West,269,0.0,0.0,97,0.00,,---,0.00,VWS V14.01,2013-09-30 09:00:00,
2013-09-30 05:01:00,46.1,45.3,30.09,West,270,0.0,0.0,97,0.00,,---,0.00,VWS V14.01,2013-09-30 09:01:00,
2013-09-30 05:06:00,46.0,45.2,30.09,West,270,0.0,0.0,97,0.00,,---,0.00,VWS V14.01,2013-09-30 09:06:00,
2013-09-30 05:11:00,46.2,45.7,30.08,West,270,0.0,0.0,98,0.00,,---,0.00,VWS V14.01,2013-09-30 09:11:00,
2013-09-30 05:16:00,46.3,45.8,30.09,West,270,0.0,0.0,98,0.00,,---,0.00,VWS V14.01,2013-09-30 09:16:00,
2013-09-30 05:21:00,46.3,45.8,30.09,West,270,0.0,0.0,98,0.00,,---,0.00,VWS V14.01,2013-09-30 09:21:00,
2013-09-30 05:26:00,46.3,45.8,30.09,West,270,0.0,0.0,98,0.00,,---,0.00,VWS V14.01,2013-09-30 09:26:00,
2013-09-30 05:30:00,46.1,45.6,30.09,West,270,0.0,0.0,98,0.00,,---,0.00,VWS V14.01,2013-09-30 09:30:00,
2013-09-30 05:31:00,46.1,45.6,30.09,West,270,0.0,0.0,98,0.00,,---,0.00,VWS V14.01,2013-09-30 09:31:00,
2013-09-30 05:36:00,46.1,45.6,30.09,West,270,0.0,0.0,98,0.00,,---,0.00,VWS V14.01,2013-09-30 09:36:00,
2013-09-30 05:41:00,46.1,45.6,30.09,West,270,0.0,0.0,98,0.00,,---,0.00,VWS V14.01,2013-09-30 09:41:00,
2013-09-30 05:46:00,46.0,45.2,30.09,West,270,0.0,0.0,97,0.00,,---,0.00,VWS V14.01,2013-09-30 09:46:00,
2013-09-30 05:51:00,45.9,45.4,30.09,West,270,0.0,0.0,98,0.00,,---,0.00,VWS V14.01,2013-09-30 09:51:00,
2013-09-30 05:56:00,45.8,45.3,30.09,West,270,0.0,0.0,98,0.00,,---,0.00,VWS V14.01,2013-09-30 09:56:00,
2013-09-30 06:00:00,45.7,44.9,30.09,West,270,0.0,0.0,97,0.00,,---,0.00,VWS V14.01,2013-09-30 10:00:00,
2013-09-30 06:01:00,45.7,44.9,30.09,West,270,0.0,0.0,97,0.00,,---,0.00,VWS V14.01,2013-09-30 10:01:00,
2013-09-30 06:06:00,45.5,44.7,30.09,West,270,0.0,0.0,97,0.00,,---,0.00,VWS V14.01,2013-09-30 10:06:00,
2013-09-30 06:11:00,45.4,44.6,30.09,West,270,0.0,0.0,97,0.00,,---,0.00,VWS V14.01,2013-09-30 10:11:00,
2013-09-30 06:16:00,45.3,44.5,30.09,West,270,0.0,0.0,97,0.00,,---,0.00,VWS V14.01,2013-09-30 10:16:00,
2013-09-30 06:21:00,45.2,44.4,30.10,West,270,0.0,0.0,97,0.00,,---,0.00,VWS V14.01,2013-09-30 10:21:00,
2013-09-30 06:26:00,45.3,44.8,30.10,West,270,0.0,0.0,98,0.00,,---,0.00,VWS V14.01,2013-09-30 10:26:00,
2013-09-30 06:30:00,45.3,44.8,30.10,West,270,0.0,0.0,98,0.00,,---,0.00,VWS V14.01,2013-09-30 10:30:00,
2013-09-30 06:31:00,45.3,44.8,30.10,West,270,0.0,0.0,98,0.00,,---,0.00,VWS V14.01,2013-09-30 10:31:00,
2013-09-30 06:36:00,45.3,44.8,30.10,West,270,0.0,0.0,98,0.00,,---,0.00,VWS V14.01,2013-09-30 10:36:00,
2013-09-30 06:41:00,45.2,44.7,30.10,West,270,0.0,0.0,98,0.00,,---,0.00,VWS V14.01,2013-09-30 10:41:00,
2013-09-30 06:46:00,45.1,44.6,30.10,West,270,0.0,0.0,98,0.00,,---,0.00,VWS V14.01,2013-09-30 10:46:00,
2013-09-30 06:51:00,45.1,44.6,30.10,West,270,0.0,0.0,98,0.00,,---,0.00,VWS V14.01,2013-09-30 10:51:00,
2013-09-30 06:55:00,45.0,44.5,30.10,West,270,0.0,0.0,98,0.00,,---,0.00,VWS V14.01,2013-09-30 10:55:00,
2013-09-30 07:00:00,44.9,44.4,30.10,West,270,0.0,0.0,98,0.00,,---,0.00,VWS V14.01,2013-09-30 11:00:00,
2013-09-30 07:05:00,44.9,44.4,30.10,West,270,0.0,0.0,98,0.00,,---,0.00,VWS V14.01,2013-09-30 11:05:00,
2013-09-30 07:10:00,45.0,44.5,30.10,West,270,0.0,0.0,98,0.00,,---,0.00,VWS V14.01,2013-09-30 11:10:00,
2013-09-30 07:15:00,45.1,44.6,30.11,West,270,0.0,0.0,98,0.00,,---,0.00,VWS V14.01,2013-09-30 11:15:00,
2013-09-30 07:20:00,45.3,44.8,30.11,West,270,0.0,0.0,98,0.00,,---,0.00,VWS V14.01,2013-09-30 11:20:00,
2013-09-30 07:25:00,45.5,45.0,30.10,West,270,0.0,0.0,98,0.00,,---,0.00,VWS V14.01,2013-09-30 11:25:00,
2013-09-30 07:30:00,45.7,45.2,30.10,West,270,0.0,0.0,98,0.00,,---,0.00,VWS V14.01,2013-09-30 11:30:00,
2013-09-30 07:35:00,45.8,45.3,30.10,West,270,0.0,0.0,98,0.00,,---,0.00,VWS V14.01,2013-09-30 11:35:00,
2013-09-30 07:40:00,46.0,45.5,30.10,West,269,0.0,0.0,98,0.00,,---,0.00,VWS V14.01,2013-09-30 11:40:00,
2013-09-30 07:45:00,46.1,45.6,30.10,West,270,0.0,0.0,98,0.00,,---,0.00,VWS V14.01,2013-09-30 11:45:00,
2013-09-30 07:50:00,46.3,45.8,30.10,West,270,0.0,0.0,98,0.00,,---,0.00,VWS V14.01,2013-09-30 11:50:00,
2013-09-30 07:55:00,46.5,46.0,30.10,West,270,0.0,0.0,98,0.00,,---,0.00,VWS V14.01,2013-09-30 11:55:00,
2013-09-30 08:00:00,46.8,46.3,30.10,West,270,0.0,0.0,98,0.00,,---,0.00,VWS V14.01,2013-09-30 12:00:00,
2013-09-30 08:05:00,47.0,46.5,30.10,West,270,0.0,0.0,98,0.00,,---,0.00,VWS V14.01,2013-09-30 12:05:00,
2013-09-30 08:10:00,47.3,46.8,30.10,West,270,0.0,0.0,98,0.00,,---,0.00,VWS V14.01,2013-09-30 12:10:00,
2013-09-30 08:15:00,47.7,47.2,30.09,West,270,0.0,0.0,98,0.00,,---,0.00,VWS V14.01,2013-09-30 12:15:00,
2013-09-30 08:20:00,47.8,47.3,30.09,West,270,0.0,0.0,98,0.00,,---,0.00,VWS V14.01,2013-09-30 12:20:00,
2013-09-30 08:25:00,48.2,47.9,30.10,West,270,0.0,0.0,99,0.00,,---,0.00,VWS V14.01,2013-09-30 12:25:00,
2013-09-30 08:30:00,48.6,48.3,30.09,West,270,0.0,0.0,99,0.00,,---,0.00,VWS V14.01,2013-09-30 12:30:00,
2013-09-30 08:35:00,49.0,48.7,30.10,West,270,0.0,0.0,99,0.00,,---,0.00,VWS V14.01,2013-09-30 12:35:00,
2013-09-30 08:40:00,49.3,49.0,30.10,West,270,0.0,0.0,99,0.00,,---,0.00,VWS V14.01,2013-09-30 12:40:00,
2013-09-30 08:45:00,49.6,49.3,30.09,West,270,0.0,0.0,99,0.00,,---,0.00,VWS V14.01,2013-09-30 12:45:00,
2013-09-30 08:50:00,49.9,49.6,30.09,West,270,0.0,0.0,99,0.00,,---,0.00,VWS V14.01,2013-09-30 12:50:00,
2013-09-30 08:55:00,50.4,50.1,30.09,West,270,0.0,0.0,99,0.00,,---,0.00,VWS V14.01,2013-09-30 12:55:00,
2013-09-30 09:00:00,50.9,50.6,30.09,West,270,0.0,0.0,99,0.00,,---,0.00,VWS V14.01,2013-09-30 13:00:00,
2013-09-30 09:05:00,51.4,51.1,30.09,West,270,0.0,0.0,99,0.00,,---,0.00,VWS V14.01,2013-09-30 13:05:00,
2013-09-30 09:10:00,51.9,51.6,30.09,West,270,0.0,0.0,99,0.00,,---,0.00,VWS V14.01,2013-09-30 13:10:00,
2013-09-30 09:15:00,52.4,52.1,30.09,West,270,0.0,0.0,99,0.00,,---,0.00,VWS V14.01,2013-09-30 13:15:00,
2013-09-30 09:20:00,53.0,52.7,30.09,West,270,0.0,0.0,99,0.00,,---,0.00,VWS V14.01,2013-09-30 13:20:00,
2013-09-30 09:25:00,53.4,53.1,30.09,West,270,0.0,0.0,99,0.00,,---,0.00,VWS V14.01,2013-09-30 13:25:00,
2013-09-30 09:30:00,54.0,53.7,30.09,West,269,0.0,0.0,99,0.00,,---,0.00,VWS V14.01,2013-09-30 13:30:00,
2013-09-30 09:35:00,54.3,54.0,30.09,West,262,0.0,0.0,99,0.00,,---,0.00,VWS V14.01,2013-09-30 13:35:00,
2013-09-30 09:40:00,54.8,54.5,30.09,West,262,0.0,0.0,99,0.00,,---,0.00,VWS V14.01,2013-09-30 13:40:00,
2013-09-30 09:45:00,55.3,55.0,30.08,West,262,0.0,2.0,99,0.00,,---,0.00,VWS V14.01,2013-09-30 13:45:00,
2013-09-30 09:50:00,56.0,55.7,30.08,SSE,150,0.0,2.0,99,0.00,,---,0.00,VWS V14.01,2013-09-30 13:50:00,
2013-09-30 09:55:00,56.7,56.4,30.08,SSE,150,0.0,2.0,99,0.00,,---,0.00,VWS V14.01,2013-09-30 13:55:00,
2013-09-30 10:00:00,57.3,57.0,30.08,SSW,210,0.0,2.0,99,0.00,,---,0.00,VWS V14.01,2013-09-30 14:00:00,
2013-09-30 10:05:00,57.7,56.9,30.08,SSW,211,0.0,1.0,97,0.00,,---,0.00,VWS V14.01,2013-09-30 14:05:00,
2013-09-30 10:10:00,58.4,56.1,30.08,SSW,200,0.0,1.0,92,0.00,,---,0.00,VWS V14.01,2013-09-30 14:10:00,
2013-09-30 10:15:00,59.0,55.1,30.08,SSE,152,0.0,2.0,87,0.00,,---,0.00,VWS V14.01,2013-09-30 14:15:00,
2013-09-30 10:20:00,59.7,54.9,30.08,SSE,152,0.0,2.0,84,0.00,,---,0.00,VWS V14.01,2013-09-30 14:20:00,
2013-09-30 10:25:00,60.4,54.9,30.08,SSE,154,0.0,2.0,82,0.00,,---,0.00,VWS V14.01,2013-09-30 14:25:00,
2013-09-30 10:30:00,61.2,53.9,30.08,South,190,0.0,2.0,77,0.00,,---,0.00,VWS V14.01,2013-09-30 14:30:00,
2013-09-30 10:35:00,61.8,53.8,30.08,South,169,0.0,2.0,75,0.00,,---,0.00,VWS V14.01,2013-09-30 14:35:00,
2013-09-30 10:40:00,62.5,53.7,30.07,SSE,166,0.0,2.0,73,0.00,,---,0.00,VWS V14.01,2013-09-30 14:40:00,
2013-09-30 10:45:00,63.1,54.3,30.07,South,181,0.0,2.0,73,0.00,,---,0.00,VWS V14.01,2013-09-30 14:45:00,
2013-09-30 10:50:00,63.7,54.1,30.07,WSW,257,0.0,2.0,71,0.00,,---,0.00,VWS V14.01,2013-09-30 14:50:00,
2013-09-30 10:55:00,64.3,54.7,30.07,SSE,152,0.0,2.0,71,0.00,,---,0.00,VWS V14.01,2013-09-30 14:55:00,
2013-09-30 11:00:00,64.7,53.9,30.07,SSE,152,0.0,2.0,68,0.00,,---,0.00,VWS V14.01,2013-09-30 15:00:00,
2013-09-30 11:05:00,65.1,54.7,30.07,SSE,152,0.0,0.0,69,0.00,,---,0.00,VWS V14.01,2013-09-30 15:05:00,
2013-09-30 11:10:00,65.4,54.2,30.07,SSE,152,0.0,0.0,67,0.00,,---,0.00,VWS V14.01,2013-09-30 15:10:00,
2013-09-30 11:15:00,65.9,54.2,30.07,SSE,150,0.0,1.0,66,0.00,,---,0.00,VWS V14.01,2013-09-30 15:15:00,
2013-09-30 11:20:00,66.7,54.2,30.07,SSW,205,2.0,2.0,64,0.00,,---,0.00,VWS V14.01,2013-09-30 15:20:00,
2013-09-30 11:25:00,67.8,54.8,30.07,South,184,0.0,2.0,63,0.00,,---,0.00,VWS V14.01,2013-09-30 15:25:00,
2013-09-30 11:30:00,68.1,54.6,30.07,SSE,156,0.0,2.0,62,0.00,,---,0.00,VWS V14.01,2013-09-30 15:30:00,
2013-09-30 11:35:00,67.8,54.3,30.07,ESE,112,0.0,1.0,62,0.00,,---,0.00,VWS V14.01,2013-09-30 15:35:00,
2013-09-30 11:40:00,67.8,54.8,30.06,ESE,112,0.0,1.0,63,0.00,,---,0.00,VWS V14.01,2013-09-30 15:40:00,
2013-09-30 11:45:00,68.1,54.2,30.06,ESE,112,1.0,1.0,61,0.00,,---,0.00,VWS V14.01,2013-09-30 15:45:00,
2013-09-30 11:50:00,68.8,53.9,30.05,East,84,1.0,2.0,59,0.00,,---,0.00,VWS V14.01,2013-09-30 15:50:00,
2013-09-30 11:55:00,68.8,53.4,30.05,WSW,258,1.0,3.0,58,0.00,,---,0.00,VWS V14.01,2013-09-30 15:55:00,
2013-09-30 12:00:00,69.3,53.4,30.05,SSW,213,1.0,3.0,57,0.00,,---,0.00,VWS V14.01,2013-09-30 16:00:00,
2013-09-30 12:05:00,69.6,54.7,30.05,NNE,16,1.0,2.0,59,0.00,,---,0.00,VWS V14.01,2013-09-30 16:05:00,
2013-09-30 12:10:00,69.3,53.4,30.05,SE,139,1.0,3.0,57,0.00,,---,0.00,VWS V14.01,2013-09-30 16:10:00,
2013-09-30 12:15:00,69.4,54.0,30.05,ESE,103,1.0,3.0,58,0.00,,---,0.00,VWS V14.01,2013-09-30 16:15:00,
2013-09-30 12:20:00,69.3,53.9,30.04,NW,316,1.0,3.0,58,0.00,,---,0.00,VWS V14.01,2013-09-30 16:20:00,
2013-09-30 12:25:00,69.3,53.9,30.04,NNW,339,0.0,3.0,58,0.00,,---,0.00,VWS V14.01,2013-09-30 16:25:00,
2013-09-30 12:30:00,69.9,54.9,30.04,NNW,337,1.0,3.0,59,0.00,,---,0.00,VWS V14.01,2013-09-30 16:30:00,
2013-09-30 12:35:00,69.7,54.3,30.04,NE,56,2.0,2.0,58,0.00,,---,0.00,VWS V14.01,2013-09-30 16:35:00,
2013-09-30 12:40:00,69.3,54.8,30.04,NNE,18,0.0,3.0,60,0.00,,---,0.00,VWS V14.01,2013-09-30 16:40:00,
2013-09-30 12:45:00,69.3,54.4,30.04,NNE,20,0.0,3.0,59,0.00,,---,0.00,VWS V14.01,2013-09-30 16:45:00,
2013-09-30 12:50:00,69.1,54.2,30.03,North,3,1.0,3.0,59,0.00,,---,0.00,VWS V14.01,2013-09-30 16:50:00,
2013-09-30 12:55:00,68.7,54.7,30.03,North,4,0.0,3.0,61,0.00,,---,0.00,VWS V14.01,2013-09-30 16:55:00,
2013-09-30 13:00:00,68.7,55.6,30.03,North,3,0.0,3.0,63,0.00,,---,0.00,VWS V14.01,2013-09-30 17:00:00,
2013-09-30 13:05:00,69.7,55.2,30.03,North,359,0.0,1.0,60,0.00,,---,0.00,VWS V14.01,2013-09-30 17:05:00,
2013-09-30 13:10:00,70.5,54.1,30.03,WSW,256,0.0,2.0,56,0.00,,---,0.00,VWS V14.01,2013-09-30 17:10:00,
2013-09-30 13:15:00,71.6,55.6,30.02,NNE,13,1.0,2.0,57,0.00,,---,0.00,VWS V14.01,2013-09-30 17:15:00,
2013-09-30 13:20:00,72.0,54.0,30.02,NNE,13,1.0,2.0,53,0.00,,---,0.00,VWS V14.01,2013-09-30 17:20:00,
2013-09-30 13:25:00,71.9,53.3,30.02,NNE,15,1.0,2.0,52,0.00,,---,0.00,VWS V14.01,2013-09-30 17:25:00,
2013-09-30 13:30:00,71.7,54.2,30.02,NE,49,1.0,2.0,54,0.00,,---,0.00,VWS V14.01,2013-09-30 17:30:00,
2013-09-30 13:35:00,71.9,53.3,30.02,NE,53,1.0,1.0,52,0.00,,---,0.00,VWS V14.01,2013-09-30 17:35:00,
2013-09-30 13:40:00,71.8,53.8,30.02,NW,320,1.0,2.0,53,0.00,,---,0.00,VWS V14.01,2013-09-30 17:40:00,
2013-09-30 13:45:00,70.9,52.9,30.02,WSW,240,2.0,3.0,53,0.00,,---,0.00,VWS V14.01,2013-09-30 17:45:00,
2013-09-30 13:50:00,71.1,53.1,30.01,SSE,148,0.0,3.0,53,0.00,,---,0.00,VWS V14.01,2013-09-30 17:50:00,
2013-09-30 13:55:00,72.1,53.0,30.01,SSE,149,2.0,3.0,51,0.00,,---,0.00,VWS V14.01,2013-09-30 17:55:00,
2013-09-30 14:00:00,72.6,52.9,30.01,SE,138,0.0,3.0,50,0.00,,---,0.00,VWS V14.01,2013-09-30 18:00:00,
2013-09-30 14:05:00,73.3,54.1,30.01,SE,137,0.0,1.0,51,0.00,,---,0.00,VWS V14.01,2013-09-30 18:05:00,
2013-09-30 14:10:00,74.2,52.7,30.01,North,360,1.0,1.0,47,0.00,,---,0.00,VWS V14.01,2013-09-30 18:10:00,
2013-09-30 14:15:00,73.7,53.4,30.01,North,360,0.0,1.0,49,0.00,,---,0.00,VWS V14.01,2013-09-30 18:15:00,
2013-09-30 14:20:00,73.3,53.0,30.01,NNW,343,2.0,2.0,49,0.00,,---,0.00,VWS V14.01,2013-09-30 18:20:00,
2013-09-30 14:25:00,73.6,53.8,30.01,ESE,108,1.0,2.0,50,0.00,,---,0.00,VWS V14.01,2013-09-30 18:25:00,
2013-09-30 14:30:00,72.9,53.2,30.01,NE,37,0.0,2.0,50,0.00,,---,0.00,VWS V14.01,2013-09-30 18:30:00,
2013-09-30 14:35:00,72.3,54.2,30.01,NE,37,0.0,1.0,53,0.00,,---,0.00,VWS V14.01,2013-09-30 18:35:00,
2013-09-30 14:40:00,71.6,52.5,30.01,NE,37,0.0,1.0,51,0.00,,---,0.00,VWS V14.01,2013-09-30 18:40:00,
2013-09-30 14:45:00,71.4,52.9,30.01,NE,37,0.0,1.0,52,0.00,,---,0.00,VWS V14.01,2013-09-30 18:45:00,
2013-09-30 14:50:00,71.6,54.6,30.01,NE,37,0.0,1.0,55,0.00,,---,0.00,VWS V14.01,2013-09-30 18:50:00,
2013-09-30 14:55:00,71.6,55.1,30.00,NE,37,0.0,1.0,56,0.00,,---,0.00,VWS V14.01,2013-09-30 18:55:00,
2013-09-30 15:00:00,71.6,54.6,30.00,NE,37,0.0,1.0,55,0.00,,---,0.00,VWS V14.01,2013-09-30 19:00:00,
2013-09-30 15:05:00,71.4,54.4,30.00,NE,37,0.0,0.0,55,0.00,,---,0.00,VWS V14.01,2013-09-30 19:05:00,
2013-09-30 15:10:00,71.6,55.1,30.00,NE,37,0.0,0.0,56,0.00,,---,0.00,VWS V14.01,2013-09-30 19:10:00,
2013-09-30 15:15:00,71.8,55.3,30.00,NE,37,0.0,1.0,56,0.00,,---,0.00,VWS V14.01,2013-09-30 19:15:00,
2013-09-30 15:20:00,72.8,54.2,30.00,NE,39,0.0,1.0,52,0.00,,---,0.00,VWS V14.01,2013-09-30 19:20:00,
2013-09-30 15:25:00,74.4,53.5,30.00,West,269,1.0,2.0,48,0.00,,---,0.00,VWS V14.01,2013-09-30 19:25:00,
2013-09-30 15:30:00,74.2,52.1,30.00,West,276,3.0,3.0,46,0.00,,---,0.00,VWS V14.01,2013-09-30 19:30:00,
2013-09-30 15:35:00,74.0,51.9,30.00,WSW,256,1.0,3.0,46,0.00,,---,0.00,VWS V14.01,2013-09-30 19:35:00,
2013-09-30 15:40:00,74.2,52.7,30.00,West,277,2.0,3.0,47,0.00,,---,0.00,VWS V14.01,2013-09-30 19:40:00,
2013-09-30 15:45:00,74.6,54.2,29.99,SSW,197,0.0,3.0,49,0.00,,---,0.00,VWS V14.01,2013-09-30 19:45:00,
2013-09-30 15:50:00,74.9,53.3,29.99,NNW,347,1.0,3.0,47,0.00,,---,0.00,VWS V14.01,2013-09-30 19:50:00,
2013-09-30 15:55:00,74.6,51.9,29.99,West,259,1.0,3.0,45,0.00,,---,0.00,VWS V14.01,2013-09-30 19:55:00,
2013-09-30 16:00:00,74.0,52.5,29.99,West,259,0.0,3.0,47,0.00,,---,0.00,VWS V14.01,2013-09-30 20:00:00,
2013-09-30 16:05:00,73.6,53.3,29.99,West,259,0.0,1.0,49,0.00,,---,0.00,VWS V14.01,2013-09-30 20:05:00,
2013-09-30 16:10:00,73.1,51.1,29.99,West,267,1.0,2.0,46,0.00,,---,0.00,VWS V14.01,2013-09-30 20:10:00,
2013-09-30 16:15:00,72.6,53.5,29.99,West,261,0.0,2.0,51,0.00,,---,0.00,VWS V14.01,2013-09-30 20:15:00,
2013-09-30 16:20:00,72.6,53.5,29.99,West,262,0.0,2.0,51,0.00,,---,0.00,VWS V14.01,2013-09-30 20:20:00,
2013-09-30 16:25:00,72.7,53.5,29.99,West,262,0.0,2.0,51,0.00,,---,0.00,VWS V14.01,2013-09-30 20:25:00,
2013-09-30 16:30:00,72.8,52.5,29.99,West,262,0.0,2.0,49,0.00,,---,0.00,VWS V14.01,2013-09-30 20:30:00,
2013-09-30 16:35:00,73.2,52.9,29.99,West,261,0.0,0.0,49,0.00,,---,0.00,VWS V14.01,2013-09-30 20:35:00,
2013-09-30 16:40:00,73.7,53.4,29.99,West,261,0.0,0.0,49,0.00,,---,0.00,VWS V14.01,2013-09-30 20:40:00,
2013-09-30 16:45:00,73.9,52.4,29.99,ESE,122,2.0,2.0,47,0.00,,---,0.00,VWS V14.01,2013-09-30 20:45:00,
2013-09-30 16:50:00,73.8,52.9,29.99,ENE,62,1.0,2.0,48,0.00,,---,0.00,VWS V14.01,2013-09-30 20:50:00,
2013-09-30 16:55:00,73.4,52.5,29.98,ENE,62,0.0,2.0,48,0.00,,---,0.00,VWS V14.01,2013-09-30 20:55:00,
2013-09-30 17:00:00,73.0,53.8,29.99,West,276,1.0,2.0,51,0.00,,---,0.00,VWS V14.01,2013-09-30 21:00:00,
2013-09-30 17:05:00,72.7,51.3,29.98,SE,139,1.0,4.0,47,0.00,,---,0.00,VWS V14.01,2013-09-30 21:05:00,
2013-09-30 17:10:00,72.5,52.8,29.99,SE,143,0.0,4.0,50,0.00,,---,0.00,VWS V14.01,2013-09-30 21:10:00,
2013-09-30 17:15:00,72.6,54.0,29.98,WNW,297,0.0,4.0,52,0.00,,---,0.00,VWS V14.01,2013-09-30 21:15:00,
2013-09-30 17:20:00,72.5,52.8,29.98,NNW,340,0.0,4.0,50,0.00,,---,0.00,VWS V14.01,2013-09-30 21:20:00,
2013-09-30 17:25:00,72.4,54.8,29.98,NNW,340,1.0,4.0,54,0.00,,---,0.00,VWS V14.01,2013-09-30 21:25:00,
2013-09-30 17:30:00,72.3,55.7,29.98,NNW,340,0.0,4.0,56,0.00,,---,0.00,VWS V14.01,2013-09-30 21:30:00,
2013-09-30 17:35:00,71.9,56.8,29.98,NNW,340,1.0,1.0,59,0.00,,---,0.00,VWS V14.01,2013-09-30 21:35:00,
2013-09-30 17:40:00,71.3,57.2,29.98,WNW,285,1.0,1.0,61,0.00,,---,0.00,VWS V14.01,2013-09-30 21:40:00,
2013-09-30 17:45:00,70.5,57.3,29.98,West,276,0.0,1.0,63,0.00,,---,0.00,VWS V14.01,2013-09-30 21:45:00,
2013-09-30 17:50:00,69.9,57.6,29.98,West,276,0.0,1.0,65,0.00,,---,0.00,VWS V14.01,2013-09-30 21:50:00,
2013-09-30 17:55:00,70.3,58.0,29.99,West,276,0.0,1.0,65,0.00,,---,0.00,VWS V14.01,2013-09-30 21:55:00,
2013-09-30 18:00:00,70.4,57.7,29.99,West,276,0.0,1.0,64,0.00,,---,0.00,VWS V14.01,2013-09-30 22:00:00,
2013-09-30 18:05:00,70.2,57.5,29.99,West,276,0.0,0.0,64,0.00,,---,0.00,VWS V14.01,2013-09-30 22:05:00,
2013-09-30 18:10:00,69.4,57.6,29.99,West,276,0.0,0.0,66,0.00,,---,0.00,VWS V14.01,2013-09-30 22:10:00,
2013-09-30 18:15:00,68.2,56.4,29.99,West,276,0.0,0.0,66,0.00,,---,0.00,VWS V14.01,2013-09-30 22:15:00,
2013-09-30 18:20:00,67.1,56.2,29.99,West,276,0.0,0.0,68,0.00,,---,0.00,VWS V14.01,2013-09-30 22:20:00,
2013-09-30 18:25:00,66.2,56.1,29.99,West,276,0.0,0.0,70,0.00,,---,0.00,VWS V14.01,2013-09-30 22:25:00,
2013-09-30 18:30:00,65.4,56.5,29.99,West,276,0.0,0.0,73,0.00,,---,0.00,VWS V14.01,2013-09-30 22:30:00,
2013-09-30 18:35:00,64.6,56.1,29.99,West,276,0.0,0.0,74,0.00,,---,0.00,VWS V14.01,2013-09-30 22:35:00,
2013-09-30 18:40:00,63.8,56.1,29.99,West,276,0.0,0.0,76,0.00,,---,0.00,VWS V14.01,2013-09-30 22:40:00,
2013-09-30 18:45:00,63.0,56.0,29.99,West,275,0.0,0.0,78,0.00,,---,0.00,VWS V14.01,2013-09-30 22:45:00,
2013-09-30 18:50:00,62.4,55.8,29.99,West,275,0.0,0.0,79,0.00,,---,0.00,VWS V14.01,2013-09-30 22:50:00,
2013-09-30 18:55:00,61.7,55.8,29.99,West,276,0.0,0.0,81,0.00,,---,0.00,VWS V14.01,2013-09-30 22:55:00,
2013-09-30 19:00:00,61.1,55.6,29.99,West,275,0.0,0.0,82,0.00,,---,0.00,VWS V14.01,2013-09-30 23:00:00,
2013-09-30 19:05:00,60.7,55.2,29.99,West,275,0.0,0.0,82,0.00,,---,0.00,VWS V14.01,2013-09-30 23:05:00,
2013-09-30 19:10:00,60.3,55.5,29.99,West,276,0.0,0.0,84,0.00,,---,0.00,VWS V14.01,2013-09-30 23:10:00,
2013-09-30 19:15:00,59.9,55.1,30.00,West,276,0.0,0.0,84,0.00,,---,0.00,VWS V14.01,2013-09-30 23:15:00,
2013-09-30 19:20:00,59.4,54.6,30.00,West,276,0.0,0.0,84,0.00,,---,0.00,VWS V14.01,2013-09-30 23:20:00,
2013-09-30 19:25:00,59.0,54.5,30.00,West,276,0.0,0.0,85,0.00,,---,0.00,VWS V14.01,2013-09-30 23:25:00,
2013-09-30 19:30:00,58.7,54.5,30.00,West,276,0.0,0.0,86,0.00,,---,0.00,VWS V14.01,2013-09-30 23:30:00,
2013-09-30 19:35:00,58.4,54.5,30.00,West,276,0.0,0.0,87,0.00,,---,0.00,VWS V14.01,2013-09-30 23:35:00,
2013-09-30 19:40:00,58.1,54.3,30.00,West,276,0.0,0.0,87,0.00,,---,0.00,VWS V14.01,2013-09-30 23:40:00,
2013-09-30 19:45:00,57.9,54.4,30.00,West,275,0.0,0.0,88,0.00,,---,0.00,VWS V14.01,2013-09-30 23:45:00,
2013-09-30 19:50:00,57.7,54.2,30.00,West,276,0.0,0.0,88,0.00,,---,0.00,VWS V14.01,2013-09-30 23:50:00,
2013-09-30 19:55:00,57.5,54.3,30.00,West,276,0.0,0.0,89,0.00,,---,0.00,VWS V14.01,2013-09-30 23:55:00,
2013-09-30 20:00:00,57.2,54.0,30.00,West,276,0.0,0.0,89,0.00,,---,0.00,VWS V14.01,2013-10-01 00:00:00,
2013-09-30 20:05:00,57.0,53.8,30.00,West,276,0.0,0.0,89,0.00,,---,0.00,VWS V14.01,2013-10-01 00:05:00,
2013-09-30 20:10:00,56.7,53.5,30.00,West,275,0.0,0.0,89,0.00,,---,0.00,VWS V14.01,2013-10-01 00:10:00,
2013-09-30 20:15:00,56.5,53.6,30.00,West,276,0.0,0.0,90,0.00,,---,0.00,VWS V14.01,2013-10-01 00:15:00,
2013-09-30 20:20:00,56.3,53.4,30.00,West,275,0.0,0.0,90,0.00,,---,0.00,VWS V14.01,2013-10-01 00:20:00,
2013-09-30 20:25:00,56.1,53.5,30.00,West,276,0.0,0.0,91,0.00,,---,0.00,VWS V14.01,2013-10-01 00:25:00,
2013-09-30 20:30:00,55.9,53.3,30.00,West,276,0.0,0.0,91,0.00,,---,0.00,VWS V14.01,2013-10-01 00:30:00,
2013-09-30 20:35:00,55.7,53.1,30.01,West,275,0.0,0.0,91,0.00,,---,0.00,VWS V14.01,2013-10-01 00:35:00,
2013-09-30 20:40:00,55.5,52.9,30.01,West,276,0.0,0.0,91,0.00,,---,0.00,VWS V14.01,2013-10-01 00:40:00,
2013-09-30 20:45:00,55.3,53.0,30.01,West,276,0.0,0.0,92,0.00,,---,0.00,VWS V14.01,2013-10-01 00:45:00,
2013-09-30 20:50:00,55.1,52.8,30.01,West,276,0.0,0.0,92,0.00,,---,0.00,VWS V14.01,2013-10-01 00:50:00,
2013-09-30 20:55:00,55.0,52.7,30.01,West,276,0.0,0.0,92,0.00,,---,0.00,VWS V14.01,2013-10-01 00:55:00,
2013-09-30 21:00:00,54.7,52.4,30.01,West,276,0.0,0.0,92,0.00,,---,0.00,VWS V14.01,2013-10-01 01:00:00,
2013-09-30 21:05:00,54.5,52.5,30.01,West,276,0.0,0.0,93,0.00,,---,0.00,VWS V14.01,2013-10-01 01:05:00,
2013-09-30 21:10:00,54.3,52.3,30.01,West,276,0.0,0.0,93,0.00,,---,0.00,VWS V14.01,2013-10-01 01:10:00,
2013-09-30 21:15:00,54.1,52.1,30.01,West,276,0.0,0.0,93,0.00,,---,0.00,VWS V14.01,2013-10-01 01:15:00,
2013-09-30 21:20:00,53.9,51.9,30.01,West,276,0.0,0.0,93,0.00,,---,0.00,VWS V14.01,2013-10-01 01:20:00,
2013-09-30 21:25:00,53.7,51.7,30.01,West,275,0.0,0.0,93,0.00,,---,0.00,VWS V14.01,2013-10-01 01:25:00,
2013-09-30 21:30:00,53.7,52.0,30.01,West,275,0.0,0.0,94,0.00,,---,0.00,VWS V14.01,2013-10-01 01:30:00,
2013-09-30 21:35:00,53.6,51.9,30.01,West,276,0.0,0.0,94,0.00,,---,0.00,VWS V14.01,2013-10-01 01:35:00,
2013-09-30 21:40:00,53.5,51.8,30.01,West,276,0.0,0.0,94,0.00,,---,0.00,VWS V14.01,2013-10-01 01:40:00,
2013-09-30 21:45:00,53.4,51.7,30.02,West,275,0.0,0.0,94,0.00,,---,0.00,VWS V14.01,2013-10-01 01:45:00,
2013-09-30 21:50:00,53.3,51.6,30.01,West,276,0.0,0.0,94,0.00,,---,0.00,VWS V14.01,2013-10-01 01:50:00,
2013-09-30 21:55:00,53.2,51.5,30.01,West,275,0.0,0.0,94,0.00,,---,0.00,VWS V14.01,2013-10-01 01:55:00,
2013-09-30 22:00:00,53.1,51.4,30.01,West,276,0.0,0.0,94,0.00,,---,0.00,VWS V14.01,2013-10-01 02:00:00,
2013-09-30 22:05:00,53.0,51.6,30.02,West,275,0.0,0.0,95,0.00,,---,0.00,VWS V14.01,2013-10-01 02:05:00,
2013-09-30 22:10:00,53.0,51.6,30.02,West,275,0.0,0.0,95,0.00,,---,0.00,VWS V14.01,2013-10-01 02:10:00,
2013-09-30 22:15:00,52.9,51.5,30.01,West,276,0.0,0.0,95,0.00,,---,0.00,VWS V14.01,2013-10-01 02:15:00,
2013-09-30 22:20:00,52.8,51.4,30.01,West,276,0.0,0.0,95,0.00,,---,0.00,VWS V14.01,2013-10-01 02:20:00,
2013-09-30 22:25:00,52.6,51.2,30.01,West,275,0.0,0.0,95,0.00,,---,0.00,VWS V14.01,2013-10-01 02:25:00,
2013-09-30 22:30:00,52.4,51.0,30.02,West,276,0.0,0.0,95,0.00,,---,0.00,VWS V14.01,2013-10-01 02:30:00,
2013-09-30 22:35:00,52.3,50.9,30.02,West,276,0.0,0.0,95,0.00,,---,0.00,VWS V14.01,2013-10-01 02:35:00,
2013-09-30 22:40:00,52.1,50.7,30.02,West,275,0.0,0.0,95,0.00,,---,0.00,VWS V14.01,2013-10-01 02:40:00,
2013-09-30 22:45:00,52.0,50.6,30.02,West,276,0.0,0.0,95,0.00,,---,0.00,VWS V14.01,2013-10-01 02:45:00,
2013-09-30 22:50:00,51.8,50.4,30.02,West,276,0.0,0.0,95,0.00,,---,0.00,VWS V14.01,2013-10-01 02:50:00,
2013-09-30 22:55:00,51.7,50.3,30.01,West,276,0.0,0.0,95,0.00,,---,0.00,VWS V14.01,2013-10-01 02:55:00,
2013-09-30 23:00:00,51.7,50.3,30.01,West,276,0.0,0.0,95,0.00,,---,0.00,VWS V14.01,2013-10-01 03:00:00,
2013-09-30 23:05:00,51.5,50.1,30.02,West,275,0.0,0.0,95,0.00,,---,0.00,VWS V14.01,2013-10-01 03:05:00,
2013-09-30 23:10:00,51.5,50.4,30.02,West,276,0.0,0.0,96,0.00,,---,0.00,VWS V14.01,2013-10-01 03:10:00,
2013-09-30 23:15:00,51.4,50.3,30.01,West,276,0.0,0.0,96,0.00,,---,0.00,VWS V14.01,2013-10-01 03:15:00,
2013-09-30 23:20:00,51.3,50.2,30.02,West,276,0.0,0.0,96,0.00,,---,0.00,VWS V14.01,2013-10-01 03:20:00,
2013-09-30 23:25:00,51.3,50.2,30.01,West,275,0.0,0.0,96,0.00,,---,0.00,VWS V14.01,2013-10-01 03:25:00,
2013-09-30 23:30:00,51.2,50.1,30.01,West,275,0.0,0.0,96,0.00,,---,0.00,VWS V14.01,2013-10-01 03:30:00,
2013-09-30 23:35:00,51.2,50.1,30.01,West,276,0.0,0.0,96,0.00,,---,0.00,VWS V14.01,2013-10-01 03:35:00,
2013-09-30 23:40:00,51.1,50.0,30.01,West,275,0.0,0.0,96,0.00,,---,0.00,VWS V14.01,2013-10-01 03:40:00,
2013-09-30 23:45:00,50.9,49.8,30.01,West,275,0.0,0.0,96,0.00,,---,0.00,VWS V14.01,2013-10-01 03:45:00,
2013-09-30 23:50:00,50.8,49.7,30.01,West,276,0.0,0.0,96,0.00,,---,0.00,VWS V14.01,2013-10-01 03:50:00,
2013-09-30 23:55:00,50.7,49.6,30.01,West,275,0.0,0.0,96,0.00,,---,0.00,VWS V14.01,2013-10-01 03:55:00,